GFSCGP_prec_cloud_057.txt.gz
Cloud_Cover
5 0 0 5 2 0 4 44 5 0 0 24 100 100 100 100 100 100 100 100 100 100 100 100 100 62 100 96 100 100 100 100 100 100 100 100 100 100 100 100 100 100 100 100
0 4 2 5 5 5 5 59 72 17 0 0 94 100 100 100 100 100 100 100 100 100 100 100 100 100 100 75 85 99 100 100 100 100 100 100 100 100 100 100 100 100 100 100
0 0 9 17 5 10 5 5 17 44 5 0 0 22 19 1 27 100 100 100 100 100 100 100 100 100 100 97 74 59 96 100 100 94 49 42 34 8 20 50 100 100 100 100
0 0 0 0 15 6 18 5 5 6 35 4 0 0 0 0 0 97 100 100 100 100 100 100 100 100 100 100 100 97 71 80 100 95 88 78 22 16 8 12 87 100 100 98
4 0 0 0 0 0 3 5 10 11 5 18 3 0 0 0 0 1 97 100 68 24 100 100 100 100 100 100 100 100 100 100 100 96 85 100 84 98 96 79 100 100 100 100
100 97 23 0 0 0 0 0 2 5 5 5 5 1 0 0 0 0 0 6 84 44 6 80 96 100 100 100 100 100 100 100 100 100 100 86 96 72 90 96 98 99 100 100
100 100 100 100 28 2 0 0 0 0 0 3 5 0 0 0 0 0 0 0 0 0 0 0 2 5 77 100 100 100 100 100 100 100 100 100 100 100 98 100 97 100 100 100
100 100 100 100 75 45 43 32 5 0 0 0 0 0 3 3 0 0 0 0 0 0 0 0 0 0 3 1 46 100 23 98 100 100 100 100 100 100 100 100 100 100 100 100
94 96 100 100 100 68 36 5 5 5 1 4 0 0 0 0 0 0 0 0 0 0 0 0 0 0 0 0 0 0 3 2 0 28 100 100 100 100 100 100 100 100 100 100
95 81 100 100 100 100 14 71 86 31 21 5 0 0 0 2 0 0 0 0 0 0 0 0 0 0 0 0 0 0 0 0 0 0 0 19 61 86 100 100 100 100 100 49
97 70 45 100 100 100 94 75 94 99 49 61 6 0 0 0 0 0 0 0 0 0 0 0 0 0 0 0 0 0 0 0 0 0 0 0 0 0 0 0 0 23 100 61
100 57 100 100 23 100 100 100 100 99 90 46 30 1 0 0 0 0 0 0 0 0 0 0 0 0 0 0 0 0 0 0 0 0 0 0 0 0 0 0 0 0 0 0
100 100 100 100 76 25 5 11 7 24 84 46 99 15 0 0 0 0 0 0 0 0 0 0 0 0 0 0 0 0 0 0 0 0 0 0 0 0 0 0 0 0 0 0
91 100 100 100 100 49 100 67 49 99 100 6 80 1 0 0 1 0 2 0 2 1 0 0 0 0 0 0 0 0 0 0 0 9 0 0 0 0 0 0 0 0 0 0
99 100 71 100 98 49 100 70 7 80 9 93 7 7 0 0 5 5 4 5 5 5 4 0 0 0 0 0 0 0 0 3 0 13 1 0 0 0 0 0 0 0 0 0
99 100 100 100 99 78 100 10 5 5 5 38 5 5 5 5 5 5 5 5 5 5 5 5 2 0 0 0 0 0 2 5 41 51 29 13 0 0 0 0 0 3 0 1
98 95 90 88 98 23 7 4 1 23 5 5 5 5 5 14 20 76 100 35 9 5 5 5 6 2 13 24 3 6 7 5 61 71 50 46 66 19 0 40 63 100 100 93
100 100 100 94 56 83 6 5 3 5 3 5 5 33 75 54 26 93 100 92 100 92 66 98 70 100 100 100 100 94 5 23 25 100 53 100 100 54 73 99 100 100 100 100
69 100 100 100 96 26 14 4 3 20 52 100 58 96 50 98 65 70 100 100 98 100 90 95 100 100 100 100 100 66 82 66 44 100 74 100 100 100 100 100 100 100 100 100
100 100 100 100 96 100 10 10 13 80 90 100 100 57 100 62 96 65 85 94 100 100 99 100 100 100 100 100 100 100 100 94 97 100 100 100 100 100 100 100 100 100 91 93
100 100 100 100 100 30 5 7 82 100 84 95 93 100 100 99 100 100 86 100 90 100 95 100 100 99 97 100 100 100 100 100 74 100 100 100 100 100 100 100 100 99 100 100
22 100 100 95 100 64 6 86 100 100 100 100 100 69 46 100 91 100 100 100 99 100 100 100 100 100 100 100 97 100 94 100 98 100 100 100 100 100 100 100 100 100 100 100
82 98 95 72 5 90 100 100 100 92 100 78 18 5 40 81 100 100 100 100 100 82 100 100 100 100 100 100 100 100 29 83 100 100 100 100 100 100 100 100 100 100 100 100
78 48 89 98 100 82 100 100 100 97 18 5 5 6 86 100 100 100 100 100 100 100 100 100 100 100 100 100 100 96 74 60 95 100 100 100 100 100 100 100 100 100 100 100
100 100 100 100 91 100 100 100 100 78 14 5 6 98 100 100 100 100 100 100 100 100 100 100 100 100 100 100 100 100 84 96 100 100 100 100 100 100 100 100 100 96 6 4
100 100 100 100 100 100 100 92 83 29 5 53 99 100 100 100 100 100 100 100 100 100 100 100 100 100 100 99 100 100 100 100 100 100 100 100 100 100 100 100 100 100 91 100

GFSCGP_prec_cloud_060.txt.gz
Cloud_Cover
0 0 0 0 0 0 0 0 0 0 0 0 0 0 0 98 58 100 100 100 100 100 100 100 100 100 100 100 100 100 100 100 100 100 100 100 100 100 100 100 100 100 100 100
0 0 0 0 0 0 0 0 0 0 0 0 0 0 0 100 100 100 100 100 100 100 100 100 100 100 100 100 100 100 100 100 100 100 100 100 100 100 100 100 97 100 100 88
0 0 0 0 0 1 0 0 0 0 0 0 3 0 0 62 100 100 100 100 100 100 100 100 100 100 100 88 100 100 100 100 100 100 100 100 100 100 100 100 100 100 100 100
37 2 0 0 0 0 0 1 0 0 0 0 7 3 0 2 100 100 100 100 100 100 100 100 100 100 100 99 100 98 100 100 97 100 100 100 100 100 100 100 100 100 100 100
100 99 9 3 5 1 0 0 0 3 5 2 9 8 5 4 0 16 61 100 100 100 100 100 100 100 100 100 93 77 82 76 100 100 99 42 45 96 100 100 100 100 100 99
86 100 100 100 24 0 1 0 3 5 5 10 5 8 48 76 2 0 14 14 95 100 100 100 100 100 100 100 100 100 100 100 100 92 98 89 12 5 13 12 41 100 98 99
97 47 100 100 95 27 1 5 24 5 3 12 19 6 100 67 5 1 1 100 84 17 43 99 100 100 100 100 100 100 100 100 100 100 100 93 94 92 92 64 69 100 99 100
99 100 47 100 100 100 100 100 100 97 5 4 4 85 10 22 15 5 2 2 100 100 100 88 84 14 96 100 100 100 100 100 90 72 25 25 86 100 100 100 100 100 98 100
100 100 85 11 100 100 100 100 85 81 9 0 0 0 4 99 4 0 5 4 0 78 100 98 56 0 0 0 38 95 100 100 100 100 100 100 100 76 95 94 100 96 100 100
100 56 100 92 84 100 100 100 100 100 53 14 7 58 95 5 8 5 0 2 1 0 0 0 0 0 0 0 0 0 5 60 67 85 100 100 100 100 100 100 100 100 100 100
99 100 100 100 84 95 100 94 100 100 100 100 100 100 87 53 5 2 2 5 5 4 3 0 0 0 0 0 0 0 0 0 4 4 0 0 16 43 90 100 100 100 100 100
100 96 100 100 100 54 12 100 100 100 100 97 99 90 52 30 5 5 5 5 5 0 0 0 0 0 0 0 0 0 0 0 0 0 0 0 0 0 2 1 14 76 98 100
100 90 98 100 100 99 42 19 99 100 100 97 96 5 58 21 77 49 5 5 6 5 0 0 0 1 0 0 0 0 0 0 0 0 0 0 0 0 0 0 0 0 0 0
100 100 100 100 100 100 85 99 100 100 100 92 39 6 94 93 96 100 98 12 56 31 33 16 0 5 5 5 3 0 0 0 0 0 0 0 0 0 0 0 0 0 0 0
99 100 98 100 100 100 100 100 100 100 64 93 40 67 83 78 100 100 100 93 66 80 86 55 6 5 5 5 5 4 0 0 0 0 0 0 0 0 0 0 0 0 0 0
100 100 66 92 80 14 99 96 73 71 98 100 100 74 53 100 100 100 100 56 78 75 18 17 5 13 5 5 8 2 0 0 0 0 0 0 0 0 0 0 0 0 0 0
96 88 100 92 99 97 100 74 75 68 97 100 100 100 100 100 100 42 14 71 84 70 54 96 8 99 99 73 22 6 0 0 0 0 0 10 0 0 0 0 0 0 0 0
80 83 80 87 100 55 100 19 4 5 16 15 39 99 97 94 93 100 100 97 100 95 93 100 72 61 86 100 78 52 20 11 0 43 61 51 10 0 0 0 0 9 0 0
100 100 100 98 100 56 8 24 5 11 3 4 24 92 61 41 63 54 99 100 100 100 82 100 98 96 87 100 98 100 97 87 16 88 100 57 94 36 5 45 36 42 75 95
100 100 100 100 100 100 82 42 94 47 49 59 100 56 15 54 98 100 79 100 100 100 94 100 100 100 100 75 100 100 100 100 56 84 81 98 100 23 43 100 100 100 100 100
99 100 100 99 100 57 92 29 28 98 97 45 23 20 39 82 93 99 90 65 65 94 100 98 95 100 100 100 100 100 100 99 100 22 19 100 81 71 97 100 100 100 100 100
70 98 100 99 100 80 83 42 82 96 97 88 53 70 100 100 99 74 85 100 100 100 100 100 100 100 100 100 100 100 100 100 97 94 97 87 28 98 100 100 100 100 100 100
80 73 92 97 99 98 86 97 100 97 95 98 97 100 100 100 100 100 100 100 100 100 100 100 100 100 100 100 100 100 100 100 100 100 100 100 95 99 100 100 100 100 100 100
94 92 100 100 88 100 100 100 100 100 98 96 97 100 100 100 100 100 100 100 100 100 100 100 100 100 100 100 100 100 100 100 74 76 100 100 100 100 100 100 100 100 100 100
100 100 100 99 100 100 100 94 100 76 18 95 92 100 100 100 100 100 100 100 100 100 100 100 100 100 100 100 100 97 100 99 100 100 100 100 100 100 100 100 100 100 100 100
100 100 100 100 100 100 100 100 100 43 98 94 100 100 100 100 100 100 100 100 100 100 100 100 100 100 100 86 47 48 88 88 100 100 100 100 100 100 100 100 100 100 100 100

GFSCGP_prec_cloud_063.txt.gz
Cloud_Cover
0 0 0 0 2 1 0 0 5 9 2 0 0 0 0 0 0 0 0 0 0 100 99 92 100 100 100 100 100 100 100 100 100 100 100 100 100 100 100 100 100 100 100 100
18 0 0 0 4 0 0 0 0 0 2 0 0 0 0 0 0 0 0 0 0 4 5 64 90 100 100 100 100 100 100 100 100 100 100 100 100 100 100 100 100 100 100 100
6 96 4 2 0 0 0 0 3 3 5 5 0 0 0 0 0 0 0 0 0 5 95 100 84 93 100 100 100 100 100 100 100 100 100 100 100 100 100 100 100 100 100 100
39 82 42 62 0 2 5 19 9 5 1 0 0 0 0 0 0 0 0 0 0 2 100 100 100 88 100 80 100 100 100 100 100 100 100 100 100 100 100 100 100 100 100 100
34 98 91 100 100 61 61 23 5 5 5 3 0 0 0 0 0 0 0 0 0 1 54 99 100 100 100 100 100 100 100 100 100 100 100 100 100 100 100 100 100 100 100 100
99 100 100 97 100 100 94 74 30 5 15 4 1 0 0 19 0 0 0 0 0 4 99 100 100 100 100 100 91 100 100 100 100 100 100 100 100 100 100 100 100 100 100 100
99 100 97 91 13 100 100 100 77 100 100 18 71 4 5 9 4 4 4 1 0 0 83 100 99 100 100 100 100 100 100 100 100 100 100 100 100 100 87 98 100 100 100 100
100 100 98 100 62 89 100 100 100 100 100 100 99 17 50 18 20 5 5 5 3 0 4 100 100 100 100 100 100 100 100 100 100 100 100 100 100 100 100 67 96 93 100 100
100 87 100 59 100 96 100 100 100 100 100 90 94 94 21 56 4 1 5 5 5 1 5 10 100 100 100 100 100 100 100 100 100 100 100 100 100 100 100 100 100 100 100 99
100 100 100 95 83 100 100 94 100 100 100 100 100 100 100 100 38 78 4 4 5 5 5 5 6 99 100 100 100 100 100 100 100 100 100 100 100 100 100 100 100 100 96 100
100 100 100 100 93 100 100 99 100 100 100 100 100 100 100 100 100 74 3 5 5 4 5 5 4 5 89 100 100 100 100 100 100 100 100 100 100 100 99 88 94 98 100 100
100 100 100 100 100 64 100 98 100 100 100 100 100 100 100 100 100 6 5 5 96 6 5 5 5 5 5 5 84 100 100 100 100 100 100 90 63 100 100 100 100 100 100 100
100 100 95 100 98 100 100 100 99 96 100 92 100 100 100 100 100 100 94 85 81 53 87 5 3 5 5 5 5 3 98 80 100 100 100 100 100 100 100 100 100 100 100 100
72 96 100 94 100 100 100 91 99 90 58 88 97 100 100 100 100 100 99 94 99 98 100 5 16 43 5 5 5 5 5 40 45 15 20 55 34 0 0 1 72 92 79 61
85 76 97 100 100 100 100 100 97 100 100 100 95 100 100 100 100 100 54 54 100 78 23 60 7 5 5 5 1 3 5 5 5 8 4 1 0 0 0 0 0 0 0 0
96 96 90 100 100 53 40 66 94 94 100 100 100 73 83 73 98 45 90 100 100 7 93 67 8 29 5 5 5 0 45 86 78 6 5 3 0 0 0 0 0 0 0 0
70 80 100 71 100 100 86 42 99 94 100 100 100 100 100 100 100 87 9 64 15 42 71 96 58 78 25 5 96 4 26 99 100 20 5 5 0 0 0 0 0 0 0 0
92 98 100 56 67 16 69 93 73 100 65 10 5 56 81 46 66 27 35 31 50 81 72 44 100 90 14 5 99 57 44 19 86 74 7 5 5 1 1 0 0 0 0 0
100 100 81 99 100 83 78 100 68 78 32 1 6 33 5 5 74 77 93 84 83 70 100 100 100 49 100 39 10 66 87 5 63 100 54 19 6 2 1 3 6 0 0 0
88 83 99 90 100 100 98 98 76 22 42 98 46 100 100 92 80 5 95 95 73 82 100 44 5 34 100 33 86 100 99 99 100 100 96 45 48 18 100 2 8 0 0 0
71 72 76 99 100 33 92 91 70 91 100 37 61 83 66 55 87 25 86 98 85 36 92 31 99 100 100 100 100 100 100 100 100 100 100 94 1 100 28 3 0 0 0 0
57 100 81 95 100 88 100 80 98 96 88 62 67 99 95 100 99 100 100 100 96 74 47 98 100 96 100 100 100 100 100 100 100 100 100 87 92 37 42 6 6 9 0 0
79 34 59 86 45 31 94 100 100 98 52 94 100 100 100 100 100 100 100 100 100 100 100 100 100 100 100 100 100 100 100 100 100 100 98 100 100 81 76 38 33 0 3 84
98 50 74 45 56 99 95 100 92 95 100 95 99 100 88 100 100 100 100 100 100 100 100 100 100 100 100 100 100 100 100 100 60 79 100 98 100 73 71 98 38 30 100 96
84 42 100 100 84 94 100 100 100 100 95 96 100 100 100 100 100 100 100 100 100 100 100 100 100 100 100 94 100 100 100 100 100 100 100 100 100 100 61 99 50 99 98 17
92 100 100 100 100 100 98 100 100 100 100 100 100 100 100 100 100 100 100 100 100 100 100 100 100 100 100 100 92 66 100 97 98 100 100 100 100 100 100 100 100 100 100 100

GFSCGP_prec_cloud_069.txt.gz
Cloud_Cover
0 0 0 0 0 0 0 0 0 0 0 100 16 18 5 0 0 0 0 0 0 0 0 0 0 1 60 100 79 100 100 100 100 100 100 100 100 100 100 100 100 100 100 100
0 0 0 0 0 3 4 5 5 0 0 100 99 10 98 27 0 0 0 0 0 0 0 0 0 0 0 3 53 51 96 100 93 100 100 100 100 100 100 100 100 100 100 100
0 0 2 71 100 100 5 59 5 3 0 99 87 5 85 1 0 0 0 0 0 0 0 0 0 0 0 0 0 1 94 99 97 96 78 100 100 100 100 100 100 100 100 100
0 0 0 2 32 68 2 4 44 7 62 7 82 78 6 2 0 0 0 0 0 0 0 0 0 0 0 0 0 0 13 81 97 95 39 94 100 100 100 100 100 100 100 100
0 0 4 40 94 99 5 10 0 26 6 93 8 43 0 0 0 0 0 0 0 0 0 0 0 0 0 0 0 0 0 2 18 100 41 84 88 100 100 100 100 100 100 100
0 5 5 96 35 56 88 41 3 58 67 48 27 100 0 0 0 0 0 0 0 0 0 0 0 0 0 0 0 0 0 0 12 88 100 76 79 60 100 100 100 100 100 100
5 62 96 100 82 58 99 100 26 0 2 0 20 68 0 2 5 1 4 5 4 0 0 0 0 0 0 0 0 0 0 0 0 0 47 100 100 99 100 100 100 100 100 100
60 77 98 46 11 87 100 100 79 83 6 22 0 2 93 81 100 0 26 71 94 5 0 0 0 0 0 0 0 0 0 0 0 0 1 47 100 100 100 100 100 100 96 100
97 26 96 84 4 6 100 100 100 100 99 45 2 1 100 100 100 100 100 73 14 1 2 0 0 0 0 0 0 0 0 0 0 0 0 17 100 99 100 81 74 97 100 100
84 98 93 100 34 65 67 100 100 100 98 100 45 0 12 100 100 100 100 100 97 5 5 0 0 4 5 4 1 0 0 0 0 0 0 3 100 99 63 64 80 99 100 100
100 76 58 57 97 63 22 100 100 100 100 41 27 56 95 100 100 100 100 100 100 92 72 84 3 2 1 0 0 2 2 0 0 0 0 0 80 100 100 37 5 91 100 100
5 6 10 54 100 55 97 51 100 100 100 69 4 42 69 100 100 100 100 100 90 61 100 91 30 3 0 0 0 0 0 0 0 0 0 0 0 7 100 100 100 94 53 100
9 3 2 97 100 100 72 95 100 100 100 77 55 29 100 16 100 100 100 100 100 100 39 86 53 100 39 2 0 0 1 0 0 1 4 0 0 0 16 100 100 100 100 100
4 0 18 62 83 10 16 24 100 100 83 100 98 80 100 100 100 100 100 100 100 100 100 100 100 100 100 98 44 5 1 0 0 0 0 4 0 0 51 100 100 100 100 57
58 11 5 2 2 6 91 95 88 74 58 6 92 1 100 100 98 7 55 100 100 100 100 100 100 99 100 76 12 5 2 0 0 0 0 0 0 0 0 96 100 100 100 100
86 5 4 4 1 85 61 20 84 100 100 5 88 99 100 100 65 5 15 6 92 100 100 100 100 39 100 18 3 0 0 0 0 0 0 0 0 0 0 0 97 100 98 100
2 6 5 4 3 1 2 26 27 87 39 100 100 95 57 19 5 5 36 87 44 99 100 100 100 99 94 98 15 0 0 0 0 0 0 0 0 0 0 0 0 76 89 5
30 19 14 5 5 10 74 39 100 100 100 58 46 77 84 56 15 87 97 94 52 7 9 59 23 34 21 68 15 1 1 3 3 0 0 0 0 0 0 0 2 8 3 0
18 14 87 5 11 5 72 100 100 100 43 53 22 45 5 5 0 0 5 5 4 3 0 0 0 5 5 5 5 5 3 0 0 0 0 0 0 0 0 0 2 7 1 0
76 99 88 21 97 5 91 47 6 5 5 86 47 23 17 5 13 9 63 10 7 0 0 0 0 0 0 0 0 5 5 4 0 0 0 0 4 6 0 0 2 15 34 1
22 92 79 89 87 12 96 53 20 19 6 5 50 40 48 91 80 100 100 100 100 100 56 10 52 5 5 2 5 10 3 2 0 2 2 19 38 100 99 2 0 44 7 4
92 97 87 96 88 77 40 18 44 63 99 100 100 100 100 100 99 100 100 100 100 100 100 100 100 100 60 15 50 57 21 5 56 40 78 100 100 100 66 86 4 12 7 0
88 84 96 77 39 86 47 92 100 100 100 100 100 100 100 100 100 100 100 100 100 100 100 100 100 100 100 85 100 100 100 100 100 100 100 100 100 91 94 100 4 5 0 5
13 28 66 9 17 100 100 100 100 100 100 100 100 100 100 100 100 100 100 100 100 100 100 100 100 100 100 100 100 100 100 100 100 100 100 100 100 100 100 73 4 0 4 2
6 6 15 36 100 100 100 100 100 100 100 100 100 100 100 100 100 100 100 100 100 100 100 100 100 100 100 100 100 100 100 100 100 100 100 95 100 100 100 12 1 0 0 0
35 8 48 100 100 100 100 100 100 100 100 100 100 100 100 100 100 100 100 100 100 100 100 100 100 100 100 100 100 100 100 100 100 100 100 100 71 28 81 12 19 100 92 98

GFSCGP_prec_cloud_072.txt.gz
Cloud_Cover
0 0 0 0 0 0 0 0 0 0 0 0 0 0 0 0 0 0 0 0 0 1 8 0 1 98 100 100 100 100 100 100 100 100 100 100 100 100 100 100 100 100 100 100
0 0 0 0 0 0 2 1 0 0 0 0 0 0 0 4 0 0 0 0 0 0 0 0 0 1 100 100 100 100 100 100 100 100 100 100 71 100 100 100 100 100 100 100
0 0 0 0 0 0 5 27 5 4 0 0 0 1 0 67 2 0 0 0 0 0 0 0 0 0 26 100 100 100 100 100 100 100 100 100 100 100 100 100 100 100 100 100
0 0 0 0 1 52 33 24 98 15 0 0 2 10 0 8 16 0 0 0 0 0 0 0 0 0 0 11 91 100 80 90 10 100 58 48 100 100 100 100 100 100 100 100
5 1 0 0 1 1 5 5 5 5 0 0 0 1 0 52 5 0 0 0 0 0 0 0 0 0 0 0 0 0 0 5 5 5 0 4 5 6 73 14 100 100 100 100
58 7 3 10 6 79 16 49 96 4 65 21 0 0 0 7 76 93 0 0 0 0 0 0 0 0 0 0 0 0 0 0 0 0 0 0 0 99 46 77 64 100 99 100
100 35 3 40 61 92 100 98 65 94 88 0 1 0 0 0 0 5 0 0 0 0 0 0 0 0 0 0 0 0 0 0 0 0 0 0 1 88 73 92 88 94 100 92
97 81 42 84 48 76 100 100 100 92 14 100 94 0 0 0 0 0 0 5 0 0 0 0 2 5 0 0 0 0 0 0 0 0 0 0 0 0 48 100 84 22 5 8
65 86 27 86 26 100 96 100 100 34 60 100 87 100 6 0 0 96 4 100 21 2 10 56 100 48 3 2 0 0 0 0 0 0 0 0 0 0 2 26 95 99 81 15
47 21 32 27 5 67 53 100 100 96 97 100 100 74 30 5 3 61 100 100 98 100 100 100 100 100 99 1 0 0 0 0 0 0 0 0 0 0 0 0 12 100 98 89
39 5 1 4 0 49 97 100 100 100 100 100 100 100 99 27 5 59 100 100 100 100 36 40 17 10 0 0 0 0 0 0 0 0 0 0 0 0 0 0 0 96 100 72
37 4 5 0 87 57 100 100 100 100 100 100 100 100 100 99 72 69 100 100 100 100 100 5 19 79 99 21 51 5 2 0 0 0 0 0 0 0 0 0 0 21 100 100
23 6 5 1 3 98 100 100 100 99 100 100 100 100 100 72 8 80 100 100 100 100 98 100 90 97 100 100 23 90 19 11 0 0 0 0 0 0 0 0 0 0 36 100
6 8 5 44 5 5 3 83 100 100 90 100 100 100 100 55 4 5 100 100 100 100 100 96 100 100 96 100 98 5 52 71 6 0 0 0 0 0 0 0 0 0 0 4
16 5 5 5 3 12 9 100 93 55 100 100 100 100 52 79 100 14 57 100 100 100 100 100 100 96 91 95 99 12 30 82 96 5 2 0 0 0 0 0 0 0 0 0
5 5 5 0 0 84 7 86 84 81 100 100 100 99 90 5 6 42 87 4 92 100 100 100 80 100 97 70 39 47 73 20 100 5 4 0 0 0 0 0 0 0 0 0
5 0 5 5 0 1 9 98 97 18 76 27 60 84 100 76 15 5 13 5 9 6 14 73 95 94 100 100 62 89 100 100 21 61 5 0 0 0 0 0 0 0 0 0
5 4 31 5 4 20 79 99 99 100 100 36 92 97 93 52 5 2 5 2 0 1 3 1 0 2 100 100 81 5 5 5 41 5 4 0 0 0 0 0 0 0 0 0
30 84 92 21 40 2 96 100 84 94 55 32 7 5 5 0 0 0 5 3 4 10 2 0 0 0 1 2 8 43 100 92 17 1 0 0 0 0 0 0 0 0 0 0
82 11 63 100 100 52 33 92 99 82 41 7 72 82 100 100 100 100 100 96 95 96 100 100 100 100 100 36 4 0 0 4 6 13 5 1 0 0 0 0 0 0 0 0
75 94 63 100 99 6 33 12 68 100 100 100 100 100 100 100 100 100 100 100 100 100 98 28 71 100 100 100 100 92 13 1 0 0 0 0 0 0 0 0 0 0 0 0
83 100 98 100 100 64 78 100 100 100 100 100 100 100 100 100 100 100 100 100 100 100 100 100 100 98 100 100 100 100 100 34 2 0 1 4 5 3 1 0 4 3 5 4
86 87 58 32 10 98 100 100 100 100 100 100 100 100 100 100 100 100 100 100 100 100 100 100 100 100 100 100 100 100 100 100 50 95 92 35 5 5 32 18 34 50 28 4
45 5 8 16 100 100 100 100 100 100 100 100 100 100 100 100 100 100 100 100 100 100 100 100 100 100 100 100 100 100 100 100 100 100 100 100 100 89 91 100 74 92 100 100
10 21 20 57 99 74 100 100 100 100 100 100 100 100 100 100 100 100 100 100 100 100 100 100 100 100 100 100 100 100 100 100 100 100 100 100 92 100 100 34 100 100 100 46
93 5 90 6 48 100 100 100 100 100 100 100 100 100 100 100 100 100 100 100 100 100 100 100 100 100 100 100 100 100 100 100 100 100 100 100 100 100 98 98 100 100 98 98

GFSCGP_prec_cloud_075.txt.gz
Cloud_Cover
0 0 0 0 0 0 0 0 0 0 0 0 0 0 0 0 0 0 0 0 0 91 100 100 75 100 100 100 8 100 100 100 100 100 100 100 100 100 100 100 100 100 100 99
0 0 0 0 0 0 0 0 0 0 0 0 0 0 0 0 0 0 0 0 0 3 5 44 100 100 28 14 93 100 34 93 100 100 100 100 100 100 100 100 100 100 100 100
2 1 0 0 0 0 0 0 0 0 0 0 0 0 0 0 0 0 0 0 0 0 0 0 1 35 53 10 0 5 13 74 22 100 98 74 100 100 100 100 100 100 100 100
4 5 5 0 0 0 0 0 0 0 3 1 0 1 0 0 0 0 3 0 0 0 0 0 0 0 0 0 0 0 1 7 6 55 100 28 28 48 100 100 100 100 100 100
64 100 6 0 1 4 0 0 0 0 5 19 0 4 0 0 0 0 52 9 0 0 0 0 0 0 0 0 0 0 0 0 1 5 5 5 7 7 47 99 100 100 100 100
65 100 99 29 5 1 5 5 20 24 21 56 2 62 0 0 0 0 0 100 53 8 0 0 0 0 0 0 0 0 0 0 0 0 0 0 0 0 4 4 95 100 100 100
94 100 100 74 98 70 66 83 63 39 57 4 5 16 0 0 0 0 0 2 2 0 0 0 0 0 0 0 0 0 0 0 0 0 0 0 0 0 0 1 6 100 100 100
64 100 100 58 91 47 9 30 100 84 60 69 98 1 39 35 25 3 0 2 0 0 0 4 2 5 0 0 0 0 0 0 0 0 0 0 0 0 0 0 0 0 10 59
6 98 100 31 66 84 11 4 26 97 100 94 5 5 38 98 96 13 2 0 0 0 0 0 5 5 0 0 0 5 0 0 0 0 0 0 0 0 0 0 0 0 2 4
11 81 100 13 17 8 0 4 64 89 100 95 36 4 1 98 86 75 65 2 0 1 4 0 11 23 5 1 5 5 72 37 0 0 0 0 0 0 0 0 0 0 0 2
47 100 100 23 54 5 1 57 100 100 100 100 47 5 90 92 100 99 99 4 22 20 49 5 5 60 65 12 5 40 51 5 4 0 0 0 0 0 0 0 0 0 0 0
100 100 100 5 36 4 0 33 100 100 100 100 99 97 95 100 100 100 27 5 3 99 61 7 97 90 100 100 48 5 5 5 5 0 0 0 0 0 0 0 0 0 0 0
100 100 100 5 6 5 19 59 97 100 100 100 100 100 59 100 100 95 13 5 8 100 100 100 100 79 100 100 100 100 13 0 2 0 0 0 0 0 0 0 0 0 0 0
100 98 65 12 10 5 2 3 5 85 94 97 95 100 100 100 100 100 55 28 5 100 100 100 100 100 99 91 100 100 100 43 41 60 1 1 0 0 0 0 0 0 0 0
100 100 20 6 4 0 0 3 5 88 100 81 76 78 51 100 100 100 75 37 5 94 100 100 100 70 72 91 53 26 63 100 100 99 9 0 0 0 0 0 0 0 0 0
100 96 31 5 0 0 5 5 5 68 99 100 100 100 43 100 68 100 9 71 24 5 100 100 100 100 100 67 5 93 60 10 7 9 12 5 1 0 0 0 0 0 0 0
72 63 8 3 0 0 3 8 5 8 56 98 85 8 5 5 5 7 4 4 49 66 68 77 99 38 88 98 100 100 14 5 5 13 100 52 24 4 0 0 0 0 0 0
46 22 48 30 4 4 16 14 7 48 100 100 100 99 86 38 51 88 99 93 81 29 36 3 12 3 3 5 34 12 56 86 85 30 5 11 32 75 97 8 2 0 0 0
34 93 98 87 44 2 4 7 84 84 100 44 88 99 98 16 6 17 81 85 78 58 70 42 38 25 27 4 0 0 3 5 5 4 83 60 5 3 6 24 50 12 3 0
80 99 100 86 100 52 2 9 69 100 89 98 100 100 100 100 100 100 100 55 46 38 75 96 100 100 100 100 100 39 5 2 0 0 3 36 100 60 6 4 1 3 2 0
74 89 67 99 100 26 56 74 90 100 100 100 100 100 100 100 100 100 100 100 100 100 100 100 100 95 100 100 100 100 99 54 87 41 0 0 1 65 71 71 66 5 3 0
16 73 99 98 94 79 71 99 96 100 100 100 100 100 100 100 100 100 100 100 100 100 100 100 100 100 100 100 100 100 100 100 100 100 96 47 15 0 0 0 10 4 1 2
59 36 47 27 75 6 18 100 76 100 100 100 100 100 100 100 100 100 100 100 100 100 100 100 100 100 100 100 100 100 100 100 100 100 100 100 17 7 3 0 0 0 0 0
98 40 10 6 5 4 50 100 100 100 100 100 100 100 100 100 100 100 100 100 100 100 100 100 100 100 100 100 100 100 100 100 100 100 100 100 100 38 20 31 78 3 2 5
24 9 12 5 3 13 76 100 100 100 100 100 100 100 100 100 100 100 100 100 100 100 100 100 100 100 100 100 100 100 100 100 100 100 100 100 100 100 100 100 38 9 12 5
66 34 97 5 6 86 62 100 83 97 100 100 100 100 100 100 100 100 100 100 100 100 100 100 100 100 100 100 100 100 100 100 100 100 100 100 100 100 100 100 100 100 100 99